GW7144 Weather Reports


Display with metric or nautical units.
time (UTC)temp
F
wind
direction
speed
MPH
gust
MPH
rain 1hr
in
rain 24hr
in
rain mn
in
humidity
%
barometer
mb
20260510115408 58 123 1.0 3.0 0.00 0.00 0.00 84 1015.4
20260510113908 58 82 2.0 3.0 0.00 0.00 0.00 84 1014.9
20260510112404 58 101 2.0 3.0 0.00 0.00 0.00 84 1014.8
20260510110903 59 88 1.0 3.0 0.00 0.00 0.00 82 1014.5
20260510105402 59 111 2.0 3.0 0.00 0.00 0.00 83 1014.1
20260510103857 58 112 2.0 4.0 0.00 0.00 0.00 86 1014.0
20260510102358 58 136 2.0 2.0 0.00 0.00 0.00 84 1014.0
20260510100856 58 88 2.0 3.0 0.00 0.00 0.00 83 1013.8
20260510095350 59 92 2.0 3.0 0.00 0.00 0.00 82 1014.0
20260510093847 59 117 3.0 4.0 0.00 0.00 0.00 84 1013.9
20260510092342 60 118 3.0 4.0 0.00 0.00 0.00 80 1013.4
20260510090843 60 116 2.0 3.0 0.00 0.00 0.00 83 1013.1
20260510085342 59 94 1.0 3.0 0.00 0.00 0.00 83 1013.0
20260510083837 60 117 2.0 3.0 0.00 0.00 0.00 81 1012.9
20260510082333 61 103 3.0 4.0 0.00 0.00 0.00 77 1012.8
20260510080830 61 105 2.0 3.0 0.00 0.00 0.00 77 1012.7
20260510075325 61 127 1.0 3.0 0.00 0.00 0.00 78 1012.7
20260510073821 62 117 1.0 2.0 0.00 0.00 0.00 74 1012.7
20260510072316 63 109 1.0 3.0 0.00 0.00 0.00 76 1012.9
20260510070814 63 81 0.0 2.0 0.00 0.00 0.00 74 1012.7
20260510065313 63 130 2.0 2.0 0.00 0.00 0.00 75 1012.7
20260510063809 62 126 3.0 3.0 0.00 0.00 0.00 80 1012.2
20260510062306 62 112 3.0 4.0 0.00 0.00 0.00 82 1012.5
20260510060803 63 115 2.0 2.0 0.00 0.00 0.00 79 1012.3
20260510055301 63 115 1.0 2.0 0.00 0.00 0.00 78 1012.3
20260510053757 63 25 1.0 2.0 0.00 0.00 0.00 79 1012.6
20260510052257 62 139 2.0 2.0 0.00 0.00 0.00 78 1012.6
20260510050753 63 95 1.0 3.0 0.00 0.00 0.00 78 1012.2
20260510045249 63 113 1.0 2.0 0.00 0.00 0.00 77 1012.2
20260510043745 63 45 0.0 3.0 0.00 0.00 0.00 75 1012.2
20260510042241 61 119 2.0 3.0 0.00 0.00 0.00 80 1012.3
20260510040738 60 124 2.0 2.0 0.00 0.00 0.00 76 1012.4
20260510035238 60 106 2.0 3.0 0.00 0.00 0.00 82 1012.0
20260510033734 60 112 2.0 3.0 0.00 0.00 0.00 81 1012.1
20260510032230 63 112 2.0 3.0 0.00 0.00 0.00 74 1011.6
20260510030727 63 109 1.0 3.0 0.00 0.00 0.00 72 1011.7
20260510025225 64 106 2.0 3.0 0.00 0.00 0.00 70 1011.4
20260510023725 64 120 2.0 2.0 0.00 0.00 0.00 70 1011.1
20260510022225 66 109 2.0 3.0 0.00 0.00 0.00 64 1010.7
20260510020724 67 101 1.0 2.0 0.00 0.00 0.00 61 1010.3
20260510015224 68 52 0.0 2.0 0.00 0.00 0.00 54 1010.0
20260510013723 69 114 2.0 3.0 0.00 0.00 0.00 56 1009.7
20260510012220 72 111 2.0 2.0 0.00 0.00 0.00 51 1009.4
20260510010719 74 117 2.0 2.0 0.00 0.00 0.00 48 1009.3
20260510005214 76 109 1.0 2.0 0.00 0.00 0.00 46 1009.2
20260510003713 80 144 1.0 2.0 0.00 0.00 0.00 41 1009.1
20260510002211 83 142 0.0 1.0 0.00 0.00 0.00 39 1009.2
20260510000707 83 185 0.0 2.0 0.00 0.00 0.00 40 1009.0
20260509235204 83 187 2.0 3.0 0.00 0.00 0.00 37 1009.2
20260509233701 84 194 1.0 3.0 0.00 0.00 0.00 35 1009.0
20260509232157 85 201 1.0 2.0 0.00 0.00 0.00 35 1009.3
20260509230654 84 190 2.0 3.0 0.00 0.00 0.00 40 1009.1
20260509225154 89 226 0.0 2.0 0.00 0.00 0.00 28 1009.0
20260509223650 87 174 3.0 6.0 0.00 0.00 0.00 31 1009.0
20260509222145 87 205 4.0 4.0 0.00 0.00 0.00 32 1009.1
20260509220645 90 199 0.0 3.0 0.00 0.00 0.00 25 1009.3
20260509215140 89 180 2.0 3.0 0.00 0.00 0.00 28 1009.2
20260509213637 91 306 1.0 2.0 0.00 0.00 0.00 25 1009.3
20260509212133 87 201 2.0 4.0 0.00 0.00 0.00 34 1009.5
20260509210628 88 185 0.0 3.0 0.00 0.00 0.00 29 1009.5
20260509205126 89 319 2.0 3.0 0.00 0.00 0.00 26 1009.8
20260509203621 90 249 2.0 6.0 0.00 0.00 0.00 25 1009.8
20260509202121 89 304 1.0 4.0 0.00 0.00 0.00 26 1009.9
20260509200620 89 193 0.0 1.0 0.00 0.00 0.00 31 1010.0
20260509195119 87 188 1.0 2.0 0.00 0.00 0.00 29 1010.2
20260509193617 87 263 1.0 3.0 0.00 0.00 0.00 26 1010.0
20260509192117 87 230 1.0 3.0 0.00 0.00 0.00 35 1010.4
20260509190617 88 250 0.0 3.0 0.00 0.00 0.00 31 1010.3
20260509185113 86 54 0.0 5.0 0.00 0.00 0.00 32 1010.3
20260509183609 86 226 2.0 8.0 0.00 0.00 0.00 28 1010.6
20260509182104 85 268 1.0 2.0 0.00 0.00 0.00 30 1010.4
20260509180601 85 355 0.0 4.0 0.00 0.00 0.00 29 1010.5
20260509175057 86 118 2.0 3.0 0.00 0.00 0.00 29 1010.7
20260509173555 85 216 1.0 2.0 0.00 0.00 0.00 38 1010.5
20260509172050 85 160 3.0 3.0 0.00 0.00 0.00 41 1010.8
20260509170550 84 215 1.0 2.0 0.00 0.00 0.00 38 1010.8
20260509165046 83 70 0.0 3.0 0.00 0.00 0.00 37 1010.8
20260509163542 83 100 0.0 6.0 0.00 0.00 0.00 37 1010.9
20260509162042 82 349 0.0 4.0 0.00 0.00 0.00 44 1010.8
20260509160541 81 152 0.0 2.0 0.00 0.00 0.00 47 1010.7
20260509155040 80 310 1.0 2.0 0.00 0.00 0.00 46 1010.7
20260509153537 77 195 2.0 3.0 0.00 0.00 0.00 55 1010.7
20260509152033 78 177 3.0 4.0 0.00 0.00 0.00 56 1010.9
20260509150530 76 143 2.0 3.0 0.00 0.00 0.00 59 1010.9
20260509145031 75 139 0.0 2.0 0.00 0.00 0.00 62 1010.7
20260509143528 74 66 0.0 2.0 0.00 0.00 0.00 64 1010.8
20260509142028 71 122 1.0 2.0 0.00 0.00 0.00 73 1010.4
20260509140524 69 53 2.0 3.0 0.00 0.00 0.00 76 1010.6
20260509135023 59 166 2.0 3.0 0.00 0.00 0.00 97 1010.4
20260509133519 59 166 2.0 3.0 0.00 0.00 0.00 97 1010.5
20260509132020 59 166 2.0 3.0 0.00 0.00 0.00 97 1010.2
20260509130519 59 133 2.0 3.0 0.00 0.00 0.00 97 1010.4
20260509125015 0 0.0 0.0 0.00 0.00 0.00 1010.5
20260509123513 0 0.0 0.0 0.00 0.00 0.00 1010.3
20260509122009 0 0.0 0.0 0.00 0.00 0.00 1010.2
20260509120507 52 110 3.0 3.0 0.00 0.00 0.00 96 1009.9